GFSFLT1_prec_cloud_102.txt.gz
Cloud_Cover
100 100 90 30 86 94 86 4 79 0 0 0 3 0 0 1 4 0 9 20 99 100 100 100 100 73 100 39 64 7 5 0 95
100 100 100 100 92 100 75 100 100 10 2 1 0 1 1 0 2 1 10 0 35 100 100 100 100 93 53 12 62 85 69 4 84
100 100 100 93 100 100 100 100 100 100 93 6 10 56 2 4 5 1 4 0 16 100 100 100 100 100 85 92 98 86 41 6 75
100 100 100 100 84 99 91 100 100 79 82 43 85 76 24 75 91 5 0 0 0 14 52 100 100 100 73 100 65 91 100 87 28
100 100 100 77 45 100 100 92 34 10 97 92 100 81 14 52 79 100 1 14 18 11 22 93 100 60 92 99 96 100 75 94 100
100 100 74 39 90 7 38 74 87 57 12 63 62 6 33 62 19 12 98 8 96 100 92 2 2 15 12 100 42 96 24 90 76
100 100 97 97 98 86 100 96 94 47 5 5 23 44 96 100 94 72 100 35 6 99 100 82 99 98 7 84 72 79 97 80 100
100 100 100 100 100 100 100 100 100 100 23 5 13 99 100 100 99 100 84 99 94 100 100 100 100 100 100 89 77 85 100 17 100
100 100 100 100 100 100 100 100 100 100 100 100 47 23 100 92 67 85 99 98 99 100 100 100 100 100 100 100 100 100 86 48 32
100 100 100 100 100 100 100 100 100 100 100 100 78 16 54 100 86 100 100 99 80 100 96 62 100 100 100 100 88 92 100 79 16
100 100 100 100 100 100 100 100 100 100 100 100 100 100 99 100 72 100 83 100 100 98 97 69 100 100 95 100 94 84 66 5 40
100 100 100 100 100 100 100 100 100 100 100 100 100 100 100 100 100 100 100 99 99 100 100 100 100 65 53 61 94 41 59 41 13
100 100 100 98 100 100 100 100 100 100 100 100 100 100 100 100 100 100 100 100 100 100 99 100 31 94 31 7 26 60 98 91 77
80 36 52 94 100 100 100 100 100 100 100 100 100 100 100 100 100 100 100 100 100 100 100 100 100 100 92 88 86 42 88 79 87
1 23 5 40 60 100 100 100 100 100 100 100 100 100 100 98 100 100 100 99 100 100 100 86 100 98 65 67 100 100 93 78 100
64 80 97 62 23 7 100 99 96 98 90 100 100 100 100 100 100 100 100 100 100 100 100 100 100 100 99 100 98 85 99 98 100
100 100 67 20 0 0 0 1 21 24 34 57 100 100 100 100 100 100 100 100 100 100 100 100 99 91 11 87 100 100 100 100 64
100 100 100 34 30 0 0 0 0 14 33 25 35 23 72 100 100 100 100 99 100 100 96 99 100 100 14 4 0 69 83 100 100
100 100 100 100 2 0 0 14 15 2 11 9 18 44 99 93 67 57 76 93 100 83 99 91 100 70 5 5 5 5 2 0 37
100 100 100 28 62 75 4 0 0 0 0 0 5 4 3 1 1 0 5 5 24 61 63 95 5 5 10 48 74 5 5 5 0

GFSFLT1_prec_cloud_105.txt.gz
Cloud_Cover
86 100 100 100 90 41 100 12 1 1 0 0 2 0 0 0 0 15 39 100 100 100 100 100 100 100 71 100 35 34 94 38 28
96 100 100 100 85 100 8 32 16 33 96 11 0 4 4 0 0 3 2 94 100 100 100 100 99 100 100 100 96 37 24 8 5
100 100 100 96 100 100 78 100 97 74 100 100 72 1 25 28 98 5 0 5 56 100 100 100 100 100 100 100 100 93 32 67 19
100 100 100 95 80 77 100 100 100 100 100 100 100 94 11 86 98 82 67 2 5 5 47 100 99 100 100 100 100 100 100 100 97
100 100 100 100 99 100 79 95 100 100 100 100 100 100 100 100 79 96 100 100 4 4 11 16 6 50 14 100 100 100 100 100 100
100 100 100 100 100 100 100 100 100 100 100 100 100 94 100 100 79 79 46 100 100 100 100 100 10 22 100 100 100 100 100 100 100
100 96 100 100 100 94 100 100 100 100 100 100 100 70 76 93 28 9 67 99 100 100 99 100 16 94 100 100 85 100 100 100 100
100 100 100 100 100 100 100 100 100 100 100 100 100 100 96 60 24 79 76 99 100 100 58 100 100 90 71 100 70 100 100 90 74
100 100 100 100 100 100 100 100 100 100 100 100 100 100 88 82 65 83 88 100 100 100 38 5 7 40 78 81 53 100 100 81 100
100 100 100 100 100 100 100 100 100 100 100 100 100 100 100 100 13 10 48 99 100 100 50 22 66 100 62 100 100 100 97 100 95
100 100 100 100 100 100 100 100 100 100 100 100 100 100 100 100 74 100 43 99 100 100 72 98 64 87 100 99 100 100 100 76 66
81 94 100 100 100 100 100 100 100 100 100 100 100 100 100 100 100 100 100 97 85 99 74 46 67 48 98 99 81 97 100 78 83
100 100 31 8 98 100 100 100 100 100 100 100 100 100 100 100 100 100 100 100 100 100 99 99 100 66 86 100 99 39 50 46 60
100 94 100 90 94 100 100 100 100 100 100 100 100 100 100 100 100 100 100 100 100 100 100 100 100 40 5 95 100 100 23 100 67
100 100 100 100 95 100 100 100 97 100 100 100 100 100 100 100 100 100 100 100 100 100 100 100 100 97 40 77 100 100 100 100 99
100 54 52 71 100 93 100 100 100 100 100 100 100 100 100 100 100 100 100 100 100 100 100 100 100 100 100 100 100 100 100 100 100
100 100 42 3 35 18 3 76 39 19 2 100 100 100 100 100 91 100 100 100 100 98 100 100 100 100 96 97 100 100 100 100 99
98 100 92 13 0 0 4 4 1 5 9 3 55 96 100 100 100 100 100 100 100 100 100 100 100 100 100 100 100 100 100 100 100
37 96 100 62 40 0 0 1 16 12 14 54 9 4 40 34 17 34 86 91 47 53 96 94 88 100 100 100 100 100 100 100 100
58 86 51 100 76 4 0 0 0 0 0 1 0 0 1 0 0 2 5 4 26 96 68 16 65 38 65 84 100 100 100 100 100

GFSFLT1_prec_cloud_108.txt.gz
Cloud_Cover
100 100 64 100 3 29 5 5 0 0 5 2 20 38 0 0 5 7 87 25 94 100 82 100 100 100 100 100 56 48 91 72 5
100 100 99 100 97 7 1 0 1 6 4 77 94 100 100 17 5 2 5 81 100 100 100 100 100 100 100 100 100 98 78 88 24
100 100 100 94 70 61 46 18 41 8 40 100 100 100 100 77 5 48 4 12 22 100 88 67 60 100 100 100 100 100 100 100 100
100 100 100 100 99 100 48 100 100 100 100 100 100 100 100 100 100 100 100 100 94 5 30 84 97 100 100 100 100 100 100 100 100
100 100 100 100 79 100 78 100 100 100 100 100 100 98 90 100 100 94 100 100 100 100 44 81 9 13 100 100 100 100 100 100 90
79 98 100 100 100 97 90 99 100 100 100 100 100 100 100 100 100 100 95 100 100 96 26 18 5 12 9 92 87 98 100 100 100
96 100 100 100 100 98 100 100 100 100 100 100 100 100 100 100 100 100 100 100 97 98 94 94 66 60 33 76 42 69 99 100 96
100 100 100 100 100 100 100 100 100 100 100 100 100 100 100 100 100 94 99 100 100 100 96 74 97 87 85 64 44 14 8 100 100
100 100 100 100 100 100 100 100 100 100 100 100 100 100 100 100 100 100 100 100 100 100 100 90 18 77 8 24 70 75 85 5 100
100 100 100 100 100 100 100 100 100 100 100 100 100 100 100 100 100 100 100 100 100 100 96 100 49 24 44 35 49 77 36 95 100
100 100 100 100 100 100 100 100 100 100 100 100 100 100 100 100 100 100 98 100 100 100 99 73 60 50 99 88 88 84 100 100 100
100 100 100 100 100 100 100 100 100 100 100 100 100 100 100 100 100 100 100 100 100 100 81 88 8 21 94 84 87 94 79 92 100
100 100 100 100 100 100 100 100 100 100 100 100 100 100 100 100 100 100 100 100 100 100 100 77 30 88 95 78 93 39 74 96 100
100 100 100 100 100 100 100 100 100 100 100 100 100 100 100 100 100 100 100 100 83 81 47 88 99 100 100 100 98 86 90 100 97
100 100 100 100 100 100 100 100 100 100 100 100 100 100 100 100 100 100 100 100 100 30 49 99 100 96 100 100 100 100 100 100 100
100 100 100 100 100 100 100 100 100 100 100 100 100 100 100 100 100 100 100 100 100 100 96 100 100 100 100 100 100 100 100 100 100
100 100 100 100 100 100 100 100 100 100 100 100 100 100 100 100 100 100 100 100 100 100 100 100 100 100 100 100 100 100 100 100 100
100 100 100 81 100 100 100 100 100 100 100 100 100 83 100 100 99 98 100 100 100 100 99 46 100 100 100 100 100 96 96 100 100
100 100 100 100 100 91 6 21 46 88 100 100 100 100 45 20 20 5 91 100 100 100 100 100 100 100 100 100 100 100 93 100 100
100 99 100 100 100 100 100 66 5 5 5 39 25 6 10 10 36 14 6 26 100 100 69 100 100 100 100 100 100 65 100 100 100

GFSFLT1_prec_cloud_111.txt.gz
Cloud_Cover
100 96 100 76 52 34 37 0 0 0 0 2 5 5 2 3 5 7 53 13 7 31 48 95 100 100 96 93 5 51 19 5 0
100 100 100 100 100 99 100 5 0 0 6 2 97 100 46 7 2 5 6 23 13 94 25 16 91 92 100 100 100 100 100 66 12
100 100 100 65 60 42 34 82 4 1 84 5 46 86 100 100 65 28 25 59 5 98 50 17 48 68 100 100 100 100 100 100 100
41 63 76 100 100 78 100 99 100 65 100 6 99 72 100 100 100 84 100 100 95 14 18 89 100 17 97 98 98 100 100 100 100
70 37 73 94 100 84 100 100 100 100 100 58 100 100 100 100 100 100 100 100 100 100 37 91 60 37 5 49 21 15 99 99 100
85 72 100 100 100 100 22 81 100 90 80 100 100 100 100 100 100 100 100 100 93 50 100 100 89 72 95 18 6 71 50 99 90
99 98 100 100 100 100 100 96 100 62 86 78 99 100 100 100 100 100 100 100 90 99 64 66 97 63 64 13 51 36 16 18 75
100 100 100 100 100 100 100 100 100 100 100 100 98 100 100 100 100 100 100 100 100 100 100 98 99 56 80 92 71 57 78 40 66
100 97 100 100 100 100 100 100 100 100 100 100 100 100 100 100 100 100 100 100 100 100 100 100 100 94 67 100 100 100 73 44 90
98 93 100 100 100 100 100 100 100 100 100 100 100 100 100 100 100 100 100 100 100 100 100 100 100 100 100 99 59 60 95 100 100
100 100 100 100 100 100 100 100 100 100 100 100 100 100 100 100 100 100 100 100 100 100 100 100 100 100 99 100 100 100 100 100 100
100 100 100 100 100 100 100 100 100 100 100 100 100 100 100 100 100 100 100 100 100 100 100 100 100 100 100 100 100 100 100 100 100
100 100 100 100 100 100 100 100 100 100 100 100 100 100 100 100 100 100 100 100 100 100 100 96 100 100 61 100 100 100 100 100 89
100 100 100 100 100 100 100 100 100 100 100 100 100 100 100 100 100 100 100 100 100 100 100 76 75 100 90 100 100 100 94 100 93
100 100 100 100 100 100 100 100 100 100 100 100 100 100 100 100 100 100 100 100 100 100 100 98 100 100 100 98 93 56 11 98 100
100 100 100 100 100 100 100 100 100 100 100 100 100 100 100 100 100 100 100 100 100 100 100 100 100 100 100 100 99 91 100 100 83
100 100 100 100 100 100 100 100 100 100 100 100 100 100 100 100 100 100 100 100 100 100 100 100 100 100 100 98 95 100 94 100 100
100 100 100 100 100 100 100 100 100 100 100 100 100 70 63 99 100 100 100 100 100 100 100 100 100 100 100 100 100 94 100 80 100
66 84 100 100 100 100 100 100 100 100 100 100 100 100 100 94 98 100 100 100 100 100 70 99 84 98 74 94 55 85 76 61 92
5 91 100 100 100 100 100 100 100 100 100 18 100 100 100 100 100 100 100 100 100 100 99 82 89 97 100 100 100 100 100 100 100

GFSFLT1_prec_cloud_114.txt.gz
Cloud_Cover
81 100 89 5 9 6 2 3 0 0 0 0 0 0 0 4 5 5 5 5 12 5 9 82 100 100 100 98 9 1 4 5 5
100 100 96 88 97 68 85 2 0 0 0 0 12 8 0 4 3 5 14 5 5 16 65 24 89 100 100 100 100 88 97 28 5
100 99 98 63 88 76 59 3 1 0 0 0 10 72 100 75 27 4 64 96 18 22 55 99 40 23 94 100 100 77 18 5 5
100 100 99 88 98 53 99 48 12 5 3 5 4 3 100 100 100 100 55 100 100 81 6 5 85 29 45 18 25 50 54 99 76
100 100 100 88 100 94 100 84 67 78 98 99 100 100 100 100 100 100 100 100 55 100 100 99 5 27 12 28 58 79 86 84 76
100 100 100 94 98 100 100 100 99 100 100 100 100 95 69 93 100 100 100 98 98 62 11 12 8 5 7 99 97 96 44 98 98
100 100 100 94 66 95 100 94 72 100 100 100 100 94 99 84 85 92 100 98 100 100 96 97 22 53 1 1 17 78 87 54 77
100 100 100 89 98 92 100 100 83 100 100 86 100 71 100 100 100 88 100 100 100 100 32 88 93 99 97 25 24 37 5 34 43
100 100 100 100 100 100 100 100 100 100 100 100 100 100 100 100 100 100 88 100 100 100 100 100 100 100 100 100 100 100 41 77 60
100 100 100 100 100 100 100 100 100 100 100 100 100 100 100 100 100 100 100 100 100 100 100 100 100 100 100 100 100 100 99 89 88
100 100 100 100 100 100 100 94 100 100 100 100 100 100 100 100 100 100 100 100 100 100 100 100 100 100 100 100 100 100 100 100 100
100 100 100 100 100 100 100 100 100 100 100 100 100 100 100 100 100 100 100 100 100 100 100 100 100 100 100 100 100 100 99 72 100
100 100 100 100 100 100 100 100 100 100 100 100 100 100 100 100 100 100 100 100 100 100 100 80 100 100 100 100 100 100 84 100 100
100 100 100 100 100 100 100 100 100 100 100 100 100 100 100 100 100 100 100 100 100 100 100 100 100 100 100 100 96 86 100 100 100
100 100 100 100 100 100 100 100 100 100 100 100 100 100 100 100 100 100 100 100 100 100 100 100 100 100 100 100 98 100 100 100 100
100 100 100 100 100 100 100 100 100 100 100 100 100 100 100 100 100 100 100 100 100 100 100 100 100 100 100 100 100 100 100 100 92
37 100 97 100 100 100 100 100 100 100 100 100 100 100 100 100 100 100 100 100 100 100 100 100 100 100 100 100 100 100 100 100 100
70 61 100 100 100 100 100 100 100 100 100 100 100 100 100 100 100 100 100 100 100 100 100 100 100 100 100 100 100 100 84 94 100
100 39 100 100 100 100 100 100 100 100 100 93 44 100 100 100 100 100 100 100 100 100 100 100 100 100 100 99 100 100 100 100 100
100 100 100 100 100 100 100 100 100 100 100 100 100 100 100 100 100 100 100 100 100 100 100 100 100 100 100 100 100 100 100 100 47

GFSFLT1_prec_cloud_117.txt.gz
Cloud_Cover
98 21 41 3 6 0 5 1 0 4 0 0 0 0 1 4 0 0 1 2 5 49 95 12 44 5 11 71 32 5 4 5 5
100 100 87 28 3 5 36 0 0 0 0 0 0 0 0 5 0 5 5 4 5 5 26 100 100 96 8 7 5 4 1 3 1
100 98 98 20 3 6 5 1 0 0 1 2 5 6 3 2 3 92 45 5 5 13 40 73 32 99 99 29 16 9 5 5 23
100 64 100 79 9 16 92 9 5 0 2 54 5 11 41 45 96 100 100 81 50 5 33 99 8 46 72 17 5 73 28 76 60
100 100 100 100 100 100 100 68 11 16 2 0 5 4 1 98 100 100 100 100 54 70 81 18 12 14 5 5 58 11 7 38 6
100 100 100 100 100 100 100 80 48 87 86 34 1 1 2 100 100 100 94 100 100 72 55 44 6 5 10 59 7 5 10 11 5
100 100 100 100 100 100 100 100 98 31 72 100 92 41 19 5 89 100 24 40 60 78 78 68 32 80 24 22 5 8 5 13 5
100 100 100 98 100 85 100 100 100 69 71 100 100 99 100 20 5 82 5 21 100 73 30 31 30 64 100 100 57 51 29 10 5
100 100 100 100 100 100 100 100 100 84 81 73 100 100 52 89 100 98 67 62 97 100 66 46 46 90 20 33 100 100 100 100 100
100 100 100 100 100 100 100 100 100 100 100 57 86 98 100 64 97 100 100 100 100 100 98 100 100 97 100 100 86 100 100 93 96
100 100 100 100 100 100 100 100 100 100 100 100 100 100 100 100 100 96 100 100 100 100 100 100 100 100 100 100 100 100 100 99 100
100 100 100 100 100 100 100 100 100 100 100 100 100 100 100 100 100 100 100 100 100 100 100 100 100 100 100 100 100 100 100 100 96
100 100 100 100 100 100 100 100 100 100 100 100 100 99 100 100 100 100 100 100 100 100 100 100 100 100 100 100 100 100 100 100 100
100 100 100 100 100 100 100 100 100 100 100 100 100 100 100 100 100 100 100 100 100 100 100 100 100 100 100 100 100 100 100 100 100
100 100 100 100 100 100 100 100 100 100 100 100 100 100 100 100 100 100 100 100 100 100 100 100 100 100 100 100 100 100 100 100 100
100 100 100 100 100 100 100 100 100 100 100 100 100 100 100 100 100 100 100 100 100 100 100 100 100 100 100 100 100 100 100 98 19
90 100 100 100 100 100 100 100 100 100 100 100 100 100 100 100 100 100 100 100 100 100 100 100 100 100 100 100 100 100 100 100 98
75 98 100 100 100 100 100 100 100 100 100 100 100 100 100 100 100 100 100 100 100 100 100 100 100 100 100 100 100 100 100 100 100
14 62 100 100 100 100 100 100 100 100 99 66 100 100 100 100 100 100 100 100 100 100 100 100 100 100 100 100 100 100 100 100 100
0 5 4 20 10 100 100 100 100 100 100 100 100 100 100 100 100 100 100 100 100 100 100 100 100 100 100 100 100 100 100 100 100

GFSFLT1_prec_cloud_123.txt.gz
Cloud_Cover
21 98 98 100 100 100 78 84 13 100 0 0 13 100 5 13 5 14 0 1 21 0 60 17 94 24 5 5 12 3 10 3 5
84 82 97 100 71 100 100 0 67 32 31 2 3 32 84 100 47 6 19 86 3 1 5 12 4 9 20 28 26 1 2 0 2
44 100 100 78 80 99 11 1 69 18 79 4 0 7 19 52 38 4 88 100 37 45 5 2 4 7 3 24 15 28 3 0 5
100 100 100 97 100 97 97 0 12 0 29 6 0 0 20 26 95 99 28 75 56 18 100 48 1 3 29 10 14 5 5 1 9
100 100 100 100 46 100 100 18 69 1 3 1 0 0 12 25 18 42 80 24 90 100 100 100 94 13 5 15 6 90 93 24 0
62 100 100 100 100 64 81 75 32 47 1 0 0 0 5 6 21 100 98 48 12 46 64 12 37 98 63 5 34 11 28 18 6
100 100 100 100 96 98 12 96 93 99 78 17 0 7 0 0 21 100 98 100 92 9 36 10 32 5 13 12 40 28 8 93 41
100 100 100 100 100 99 100 100 82 11 89 83 19 26 38 0 0 18 100 74 100 97 85 22 5 4 12 27 80 94 47 11 26
100 100 100 100 100 100 100 97 70 98 74 99 100 45 30 73 8 10 8 100 100 92 14 7 91 79 11 65 64 7 0 24 0
100 100 96 88 100 100 100 100 100 100 93 100 97 88 70 12 19 35 23 16 40 98 97 99 100 81 100 100 100 100 84 5 5
100 100 100 100 100 100 100 100 100 100 99 100 100 100 100 98 89 43 32 45 50 36 100 100 100 100 100 92 100 100 100 100 15
100 100 100 100 100 100 100 100 100 100 100 100 100 100 100 100 86 50 34 82 96 100 100 100 99 100 100 100 100 100 98 100 100
100 100 100 100 100 100 100 100 100 100 100 100 100 100 100 100 100 95 69 100 100 72 100 93 100 100 100 100 100 100 100 100 100
100 100 100 100 100 100 100 100 100 100 100 100 100 100 100 100 100 100 99 100 100 100 100 100 100 100 100 100 100 100 100 100 100
100 100 100 100 100 100 100 100 100 100 100 100 100 100 100 100 100 100 100 100 100 100 100 100 100 100 100 100 100 100 100 100 100
100 100 100 100 100 100 100 100 100 100 100 100 100 100 100 100 100 100 100 100 100 100 100 100 100 100 100 100 100 100 100 100 100
100 100 100 100 100 100 100 100 100 100 100 100 100 100 100 100 100 100 100 100 100 100 100 100 100 100 100 100 100 100 100 100 100
100 100 100 100 100 100 100 100 100 100 100 100 100 100 100 100 100 100 100 100 100 100 100 100 100 100 100 100 100 100 100 100 100
100 100 100 100 100 100 100 100 100 100 100 100 100 100 100 100 100 100 100 100 100 100 100 100 100 100 100 100 100 100 100 100 100
100 100 100 100 100 100 100 100 100 100 100 100 100 100 100 100 100 100 100 100 100 100 100 100 100 100 100 100 100 100 100 100 100

GFSFLT1_prec_cloud_129.txt.gz
Cloud_Cover
45 98 72 39 100 63 43 21 1 0 0 48 4 5 4 0 0 0 0 0 0 0 2 0 0 0 0 6 97 43 63 100 90
100 26 34 14 10 58 23 66 5 0 0 0 4 1 5 1 0 0 0 0 0 0 0 0 0 0 0 0 0 0 0 1 5
26 51 70 4 5 15 86 30 28 4 3 0 0 2 4 8 34 0 0 0 0 0 0 3 0 0 0 0 0 0 0 0 0
67 100 52 87 100 100 76 100 34 8 5 3 0 0 0 0 5 5 2 0 0 0 4 5 9 5 15 2 4 4 0 0 4
0 7 88 100 100 24 100 100 32 73 5 5 3 0 1 0 4 4 5 5 3 4 4 5 5 6 5 3 5 5 2 0 0
0 0 21 31 4 40 100 100 18 61 10 25 8 4 0 0 0 6 91 9 5 7 5 14 31 45 66 12 12 64 95 25 62
0 0 40 38 6 83 96 88 96 100 41 68 22 40 5 4 2 1 3 4 3 97 56 90 81 15 100 100 100 100 100 100 100
3 56 35 81 100 99 63 24 100 100 100 100 100 44 5 13 5 5 1 0 0 76 29 94 100 88 93 99 100 100 100 100 100
58 19 99 100 100 100 98 64 100 100 100 100 100 100 100 94 100 52 5 0 5 70 18 5 45 68 82 5 79 82 99 83 90
47 91 99 100 100 100 94 99 100 100 100 100 100 100 100 94 41 5 5 5 5 12 100 100 53 90 29 9 21 17 4 4 2
62 48 91 17 99 100 42 98 100 100 100 100 100 100 100 100 100 59 19 58 0 0 9 100 100 100 100 100 74 81 85 84 74
100 58 84 85 84 100 100 100 100 100 100 100 100 100 100 100 100 100 100 100 91 43 15 100 100 100 100 100 100 100 100 92 93
100 100 100 99 98 100 100 100 100 100 100 100 100 100 100 100 100 100 100 100 100 100 100 100 100 100 100 96 100 100 100 100 100
100 100 94 97 100 100 100 100 100 100 100 100 100 100 100 100 100 100 100 100 100 100 100 100 100 100 100 100 100 100 100 100 100
100 100 96 96 100 100 100 100 100 100 100 100 100 100 100 100 100 100 100 100 100 100 100 100 100 100 100 91 100 100 100 100 100
100 100 100 98 100 100 100 100 100 100 100 100 100 100 100 100 100 100 100 100 100 100 100 100 100 100 100 100 100 100 100 100 100
100 100 100 100 100 100 100 100 100 100 100 100 100 100 100 100 100 100 100 100 100 100 100 100 100 84 100 100 100 93 100 100 100
97 100 100 100 100 100 100 100 100 100 100 100 100 100 100 100 100 100 100 100 100 100 100 100 100 99 97 100 100 100 100 100 100
57 45 91 100 100 100 100 100 100 100 100 100 100 100 100 100 100 100 100 100 100 100 100 100 100 100 100 100 100 100 100 100 100
98 5 5 94 100 100 100 100 100 100 100 100 100 100 100 100 100 100 100 100 100 100 100 100 100 100 100 100 100 100 100 100 100

GFSFLT1_prec_cloud_132.txt.gz
Cloud_Cover
12 6 26 28 98 39 2 27 0 19 37 92 100 70 4 0 0 0 5 5 2 5 51 60 100 99 58 76 56 100 100 100 100
1 35 4 7 100 37 100 99 3 9 89 3 35 100 7 0 0 0 0 0 19 86 0 32 100 100 100 100 100 98 51 78 83
5 7 33 5 95 94 71 51 69 83 89 69 31 10 84 60 0 0 0 0 0 0 0 0 0 37 2 57 100 98 5 5 4
5 5 4 6 98 100 59 11 82 100 64 100 66 2 5 56 11 0 0 0 0 0 0 0 0 3 4 5 5 3 4 0 0
0 5 9 4 14 100 95 5 76 98 80 97 33 49 4 2 8 5 0 0 0 0 0 0 0 0 0 2 4 5 5 3 2
12 4 0 12 96 100 94 96 30 73 85 100 85 44 0 2 5 3 0 0 0 0 0 0 5 2 0 2 5 5 5 1 1
4 6 0 0 19 67 90 100 84 100 100 100 99 36 6 2 18 4 0 0 0 1 3 2 5 5 5 5 75 100 90 98 60
5 32 5 2 1 49 100 100 46 92 89 100 100 94 41 15 84 99 96 39 5 5 5 8 5 5 5 5 6 26 38 57 26
56 1 5 5 11 5 98 100 60 16 53 100 100 100 100 100 100 100 10 73 30 8 5 90 100 100 60 35 15 56 58 69 100
0 0 5 0 5 86 100 66 11 38 86 36 98 100 100 100 100 100 100 100 72 8 5 14 6 59 100 100 100 96 98 100 100
54 9 4 1 33 81 46 70 27 48 92 98 100 100 100 100 100 100 100 100 100 100 23 33 24 60 40 98 78 26 8 6 24
53 100 97 100 100 98 84 89 98 29 95 99 100 100 100 100 100 100 100 100 100 100 100 92 99 99 76 92 81 48 48 82 100
100 100 97 100 100 100 100 100 86 24 100 100 100 100 100 100 100 100 100 100 100 100 100 100 100 100 94 75 100 100 100 100 100
100 100 100 100 87 64 92 88 100 67 97 100 100 100 100 100 100 100 100 100 100 100 100 100 100 100 100 99 100 100 100 100 100
100 98 100 100 87 100 97 98 100 100 100 100 100 100 100 100 100 100 100 100 100 100 100 100 100 100 100 100 100 100 100 100 100
100 100 100 100 100 100 100 100 100 100 100 100 100 100 100 100 100 100 100 100 100 100 100 100 100 100 100 100 100 100 100 100 100
100 100 100 84 100 100 100 100 100 100 100 100 100 100 100 100 100 100 100 100 100 100 100 100 100 100 100 100 100 100 100 100 100
100 100 63 98 100 100 100 100 100 100 100 100 100 100 100 100 100 100 100 100 100 100 100 100 100 100 100 98 100 100 100 100 100
100 100 97 100 98 100 100 100 100 100 100 100 100 100 100 100 100 100 100 100 100 100 100 100 100 100 100 100 100 100 100 100 100
100 100 100 100 100 100 100 100 100 100 100 100 100 100 100 100 100 100 100 100 100 100 100 100 100 100 100 100 100 100 100 100 100

GFSFLT1_prec_cloud_135.txt.gz
Cloud_Cover
89 100 79 4 21 20 17 71 98 1 5 80 100 0 0 0 0 0 0 0 0 0 1 72 82 3 31 76 19 6 82 54 100
5 8 99 5 22 92 24 80 100 100 13 100 69 71 0 0 0 0 12 0 0 0 1 5 5 1 5 44 63 36 82 88 100
4 5 5 5 40 29 82 82 100 100 100 57 48 77 6 5 0 0 0 0 0 0 0 0 0 12 37 7 9 97 100 100 100
1 1 0 0 6 79 91 99 100 100 96 100 71 4 14 5 1 0 0 0 0 0 0 0 0 4 9 2 15 79 100 71 9
5 4 0 5 2 97 100 100 98 64 41 26 62 100 52 44 6 0 0 0 0 0 0 0 0 3 0 0 1 6 6 3 0
2 0 0 0 0 31 94 100 100 14 18 100 98 47 81 77 56 5 0 0 0 0 0 0 0 0 0 1 0 0 1 0 0
0 5 5 5 2 0 100 100 96 77 26 65 100 93 100 100 55 63 0 0 0 0 0 0 0 0 0 0 4 4 4 3 11
1 5 5 5 8 5 56 97 99 99 82 100 16 62 100 100 96 100 31 0 0 0 0 0 0 0 0 1 5 10 8 22 9
0 0 1 0 1 4 1 12 100 100 100 40 43 100 100 99 100 100 58 0 0 5 3 4 8 98 29 33 8 81 95 100 58
0 0 0 2 56 51 47 100 95 100 100 92 81 100 98 100 100 98 72 98 24 2 4 9 5 100 100 100 30 88 97 82 57
0 0 0 0 4 24 42 32 92 100 59 100 96 100 100 98 100 100 94 99 99 100 100 96 92 70 100 100 59 94 89 53 30
0 0 0 0 63 100 100 100 100 58 100 100 100 100 99 100 100 100 100 100 100 100 100 100 100 100 100 100 57 50 43 45 21
2 1 26 74 100 95 97 91 88 28 93 100 100 100 100 99 100 100 100 100 100 100 100 100 100 100 100 100 100 100 100 100 87
82 98 100 100 100 68 100 100 91 50 100 100 100 100 100 100 100 100 100 100 100 100 100 100 100 100 100 100 100 100 100 100 100
100 100 100 100 99 88 100 100 91 100 100 95 100 100 100 100 100 100 100 100 100 100 100 100 100 100 100 100 100 100 100 100 100
96 99 100 100 100 99 100 100 100 100 88 74 100 100 100 100 100 100 100 100 100 100 100 100 100 100 100 100 100 100 100 100 100
100 100 100 100 100 100 100 100 100 100 81 100 100 100 100 100 100 100 100 100 100 100 100 100 100 100 100 100 100 100 100 100 100
100 100 100 100 100 100 100 100 100 100 84 100 100 100 100 100 100 100 100 100 100 100 100 100 100 100 100 100 100 100 100 100 100
100 100 100 100 100 100 100 100 100 100 100 100 100 100 100 100 100 100 100 100 100 100 100 100 100 100 100 100 100 100 100 100 100
96 100 100 100 81 100 100 100 100 100 100 100 100 100 100 100 100 100 100 100 100 100 100 100 100 100 100 100 100 100 100 100 100

GFSFLT1_prec_cloud_138.txt.gz
Cloud_Cover
5 19 6 64 100 100 100 78 58 4 0 5 100 0 0 0 0 0 0 0 0 0 0 0 0 0 0 0 0 2 5 13 26
0 0 0 4 14 94 71 100 100 100 8 0 51 94 0 0 0 0 0 0 0 0 2 3 0 0 0 4 5 0 46 5 5
4 0 0 0 1 5 41 97 98 86 97 19 4 84 15 3 1 0 0 2 0 0 0 0 0 0 0 0 4 7 5 5 5
5 0 0 0 0 0 8 98 29 96 100 100 31 10 62 36 4 0 0 0 0 0 0 0 0 0 0 0 3 97 34 5 5
1 0 0 0 0 0 3 37 100 96 92 100 87 100 98 78 31 0 0 0 4 0 0 0 0 4 0 1 5 6 5 13 6
0 0 0 0 0 0 0 14 100 65 100 100 82 18 100 100 85 34 0 0 0 0 0 0 0 5 6 4 0 4 7 28 13
0 0 0 5 5 5 2 0 95 96 100 100 100 5 94 100 55 6 9 2 0 0 0 0 0 0 0 1 0 0 0 0 0
0 0 0 0 5 5 5 2 0 4 59 75 99 17 89 100 100 100 5 0 0 0 0 0 0 0 0 0 0 2 4 16 86
0 0 0 6 39 36 100 83 58 22 9 100 97 82 10 6 100 99 98 6 0 0 0 0 0 0 0 0 0 10 4 5 13
0 0 0 20 91 97 85 47 100 100 100 57 93 87 84 86 84 99 98 100 100 1 0 0 0 0 0 0 6 7 0 21 77
0 0 0 0 15 46 69 100 100 83 16 88 12 100 73 100 100 78 56 100 100 78 5 0 0 0 0 18 56 60 50 100 100
0 0 0 4 32 64 100 97 100 100 14 20 37 97 94 38 98 100 100 100 100 94 96 86 98 64 89 92 83 73 58 99 99
0 6 42 23 44 98 90 96 91 100 100 100 99 100 100 55 99 100 100 78 100 100 100 100 100 100 100 100 100 100 100 100 100
33 85 100 100 100 100 100 100 100 98 96 95 85 100 100 100 77 100 100 100 100 100 100 100 100 100 100 100 100 100 100 100 100
100 100 100 100 100 100 100 95 95 100 100 76 71 100 100 100 100 100 100 100 100 100 100 100 100 100 100 100 100 100 100 100 100
73 91 100 100 100 100 100 100 100 100 99 36 49 100 100 100 100 100 100 100 100 100 100 100 100 100 100 100 100 100 100 100 100
100 100 100 100 100 100 100 100 100 96 49 23 23 81 100 100 100 100 100 100 100 100 100 100 100 100 100 100 100 100 100 100 100
100 100 100 100 93 100 100 100 100 74 90 24 86 80 100 100 100 100 100 100 100 100 100 100 100 100 100 100 100 100 100 100 100
100 62 96 100 100 100 100 100 100 100 100 90 75 100 100 100 100 100 100 100 100 100 100 100 100 100 100 100 100 100 100 100 100
100 98 68 37 100 100 100 100 100 100 86 100 97 100 100 97 100 100 100 100 100 100 100 100 100 100 100 100 100 100 100 100 100

GFSFLT1_prec_cloud_141.txt.gz
Cloud_Cover
0 4 5 69 100 34 100 28 98 100 92 98 100 28 0 0 0 5 0 0 0 0 0 0 0 0 0 0 5 5 3 6 7
0 0 0 2 92 100 9 45 83 48 98 3 93 100 2 1 0 1 0 0 0 0 0 0 0 0 0 0 0 0 0 3 54
4 0 0 0 0 8 57 13 42 10 88 14 2 85 79 30 70 1 0 0 0 0 0 0 0 0 0 0 0 0 0 2 5
5 3 0 0 0 0 0 2 9 100 100 71 23 82 75 17 56 82 13 0 0 0 0 0 0 0 0 0 0 5 4 5 5
0 5 5 0 0 0 3 0 1 100 100 100 100 100 3 28 2 3 37 0 0 0 0 0 0 0 0 0 0 0 5 5 5
0 0 0 0 0 0 0 0 0 0 100 100 98 96 100 100 5 10 0 0 0 0 0 0 0 0 0 0 0 6 5 84 5
0 0 0 0 0 0 0 0 0 0 9 100 100 100 100 92 5 30 11 0 0 0 0 0 0 0 0 0 3 5 2 3 5
0 0 0 0 0 1 9 0 4 5 7 57 100 100 100 94 6 49 83 33 3 0 0 0 0 0 0 3 5 5 0 0 0
0 0 0 0 6 89 100 100 100 70 54 42 92 100 99 15 88 99 93 37 58 20 0 0 0 0 0 0 2 15 2 4 6
0 0 0 0 33 89 46 100 100 98 86 50 87 80 99 88 65 100 100 66 72 49 23 0 6 6 0 0 0 23 30 15 46
0 0 0 3 35 40 52 68 49 98 59 46 43 51 48 90 100 90 56 68 100 98 71 41 11 1 20 0 1 27 11 26 0
0 0 0 11 24 47 73 79 100 100 99 56 55 59 100 100 76 100 59 35 40 100 100 94 55 5 29 1 55 97 51 29 84
0 2 7 23 24 47 97 79 100 100 100 100 100 91 68 76 100 100 100 84 32 66 100 100 80 41 41 88 86 100 98 74 100
18 31 33 36 53 87 100 100 100 100 87 56 89 100 100 100 100 100 100 90 96 100 99 100 100 100 100 100 99 100 100 100 100
59 36 34 54 53 96 100 100 100 100 34 99 100 68 100 100 100 100 100 100 100 100 100 100 100 100 100 100 100 100 100 100 100
76 70 41 40 88 100 100 100 84 87 50 61 38 71 99 100 100 100 100 100 100 100 100 100 100 100 100 100 100 100 100 100 100
100 100 100 100 100 100 100 100 100 76 81 49 51 100 77 97 100 100 100 100 100 100 100 100 100 100 100 100 100 100 100 100 100
100 100 100 100 100 100 94 100 100 100 100 62 58 100 99 100 100 100 100 100 100 100 100 100 100 100 100 100 100 100 100 100 100
97 86 100 100 100 100 100 100 100 100 94 24 50 96 100 91 100 100 100 100 100 100 100 100 100 100 100 100 100 100 100 100 100
14 5 6 100 100 100 100 100 100 98 91 98 100 100 100 100 100 100 100 100 100 100 100 100 100 100 100 100 100 100 100 100 100

GFSFLT1_prec_cloud_144.txt.gz
Cloud_Cover
1 1 94 100 100 100 100 100 100 88 100 100 70 1 0 0 0 4 5 100 8 12 6 99 62 17 0 0 0 2 4 3 2
1 4 0 0 48 100 86 100 100 100 100 100 83 85 0 0 0 0 6 79 5 5 3 26 5 24 1 0 0 0 5 5 8
5 4 0 4 4 2 7 90 100 100 100 100 98 51 31 0 0 0 0 3 5 5 7 2 0 0 0 0 0 2 4 4 60
4 5 0 0 0 0 2 2 78 100 100 98 100 100 100 22 0 0 0 0 0 1 0 0 0 0 0 0 3 6 2 3 18
0 0 0 0 0 0 0 0 0 16 99 100 100 100 56 100 6 0 0 0 0 0 0 0 0 0 0 0 0 4 19 5 5
0 0 0 0 0 0 0 0 0 0 2 81 100 100 100 100 100 14 7 2 0 0 0 0 0 0 0 0 0 1 63 71 13
0 0 0 0 0 0 0 0 0 0 0 0 84 100 91 59 92 100 27 30 21 21 0 0 0 0 0 0 4 1 0 5 39
0 0 0 0 0 0 0 0 0 0 2 10 6 74 14 7 85 100 97 16 31 24 45 3 17 15 7 0 0 0 0 3 6
0 0 0 0 0 0 0 0 8 7 22 33 77 17 4 14 80 100 66 72 42 90 52 14 12 0 12 12 1 0 0 4 5
0 0 0 0 0 0 0 1 5 0 4 12 25 92 96 98 87 98 100 100 100 95 51 65 100 22 32 8 16 0 0 0 5
0 0 0 0 0 0 2 0 10 22 0 0 0 3 9 17 26 75 70 99 96 97 48 93 98 10 58 24 0 0 0 0 4
0 0 0 0 0 3 19 32 77 87 54 13 4 0 0 8 19 64 77 85 98 100 90 89 97 39 70 42 20 18 25 38 0
0 0 0 0 0 5 21 90 94 100 60 10 8 17 10 22 46 95 99 86 62 95 73 69 100 100 92 7 5 93 48 22 8
0 0 0 2 12 64 91 46 92 89 63 54 77 69 82 93 99 100 99 97 85 89 96 25 96 100 98 100 100 99 100 100 40
0 0 6 1 16 45 100 100 99 84 100 71 100 97 72 100 98 100 100 100 100 100 80 93 28 100 100 100 100 100 100 100 45
0 0 59 91 100 100 100 100 99 100 79 100 91 40 73 100 100 96 100 100 100 100 88 98 100 100 100 100 100 100 100 100 100
87 78 97 100 84 91 100 100 82 100 98 100 47 98 96 88 100 100 100 100 100 100 100 100 100 100 100 100 100 100 100 100 100
69 30 34 56 82 100 100 100 100 78 97 85 38 100 75 47 100 100 100 100 100 100 100 100 100 100 100 100 100 100 100 100 100
18 81 53 100 100 93 96 85 100 91 58 89 86 88 93 12 99 100 100 100 100 100 100 100 100 100 100 100 100 100 100 100 100
44 59 74 100 96 100 100 100 99 81 96 86 64 43 77 99 100 100 100 100 100 100 100 100 100 100 100 100 100 100 100 100 100

GFSFLT1_prec_cloud_147.txt.gz
Cloud_Cover
100 71 100 100 100 100 100 100 100 100 100 100 100 84 2 0 5 5 5 59 17 11 87 37 99 88 3 2 72 30 100 80 5
5 49 100 97 100 100 100 100 100 100 100 100 100 100 5 0 0 5 31 100 100 5 95 58 7 96 95 25 38 0 64 100 27
7 2 49 15 17 82 100 100 100 100 100 100 100 100 65 2 0 0 0 6 5 10 79 74 92 71 27 20 1 25 7 100 66
29 5 0 0 3 0 3 0 2 83 100 100 100 100 100 55 0 0 5 2 5 4 0 6 4 1 11 15 18 6 2 94 46
5 1 0 0 0 0 1 1 0 14 89 100 100 100 100 100 32 7 22 1 0 1 4 0 0 0 0 0 0 13 0 3 10
0 0 0 0 0 0 0 2 1 3 16 90 100 100 100 100 100 7 5 3 11 64 5 0 4 0 0 0 0 0 0 0 5
0 0 0 0 0 0 0 0 0 0 3 12 78 100 100 100 100 100 91 5 18 23 4 0 0 0 0 0 0 5 5 20 2
0 0 0 0 0 0 0 0 4 1 2 10 35 27 100 100 100 92 100 99 14 5 2 0 0 0 0 0 4 7 4 0 43
0 0 0 0 0 0 0 0 2 0 0 4 27 52 97 75 95 99 6 72 100 70 17 0 0 0 0 0 0 0 3 18 40
0 0 0 0 0 0 0 0 0 3 2 14 23 78 88 52 91 100 100 98 100 100 34 5 5 2 0 0 0 0 0 0 5
26 4 30 1 0 0 2 0 0 0 15 38 32 45 45 53 42 26 93 100 100 100 100 68 39 5 5 4 0 0 0 0 0
0 5 8 0 0 0 5 7 13 0 7 34 10 30 38 31 28 19 20 66 99 100 55 93 100 100 87 8 3 4 4 0 0
0 0 0 0 0 0 0 22 8 4 11 6 53 75 20 11 16 12 16 39 45 99 73 8 34 93 100 100 100 90 81 75 19
0 0 0 0 0 0 0 20 32 63 21 83 44 45 53 47 74 63 63 95 100 100 65 94 14 28 38 31 100 100 99 60 100
0 0 0 0 0 47 5 76 100 100 100 100 70 100 82 92 100 97 86 99 98 100 100 99 46 100 99 100 100 100 100 100 97
0 0 0 33 84 77 84 100 100 100 100 52 50 32 26 52 48 70 99 100 100 100 100 100 60 62 100 100 100 100 100 100 100
0 5 76 2 68 100 100 100 94 66 39 24 28 99 35 46 47 95 91 100 100 100 100 100 100 100 100 100 100 100 100 100 100
6 43 78 100 100 100 100 96 78 100 6 29 23 40 36 10 58 100 100 100 100 100 100 100 100 100 100 100 100 100 100 100 100
21 56 92 86 89 99 99 74 43 62 76 21 96 75 7 4 35 99 75 100 100 100 100 100 100 100 100 100 100 100 100 100 100
13 54 64 61 100 100 94 100 99 82 68 25 91 68 67 11 21 91 100 100 92 100 100 100 100 100 100 100 100 100 100 100 100